Tiempo cada hora Ceará Mirim

Hoy, 19 Enero, Martes

Tiempo Temperatura Precipitaciones Viento Presión Humedad
00:00 +27°C° 0 mm 4 mps 757 mmHg 77%
01:00 +27°C° 0 mm 4 mps 757 mmHg 78%
02:00 +27°C° 0 mm 3 mps 756 mmHg 80%
03:00 +27°C° 0 mm 3 mps 756 mmHg 81%
04:00 +26°C° 0 mm 3 mps 755 mmHg 82%
05:00 +26°C° 0 mm 3 mps 756 mmHg 81%
06:00 +27°C° 0 mm 3 mps 756 mmHg 81%
07:00 +27°C° 0 mm 3 mps 757 mmHg 80%
08:00 +28°C° 0.1 mm 3 mps 757 mmHg 73%
09:00 +30°C° 0.1 mm 4 mps 757 mmHg 66%
10:00 +32°C° 0.1 mm 5 mps 757 mmHg 58%
11:00 +33°C° 0 mm 5 mps 757 mmHg 55%
12:00 +34°C° 0 mm 6 mps 757 mmHg 52%
13:00 +35°C° 0 mm 6 mps 756 mmHg 49%
14:00 +34°C° 0 mm 6 mps 756 mmHg 51%
15:00 +34°C° 0 mm 6 mps 755 mmHg 54%
16:00 +33°C° 0 mm 6 mps 754 mmHg 56%
17:00 +32°C° 0 mm 5 mps 755 mmHg 62%
18:00 +30°C° 0 mm 5 mps 755 mmHg 68%
19:00 +29°C° 0 mm 4 mps 755 mmHg 74%
20:00 +28°C° 0 mm 4 mps 756 mmHg 76%
21:00 +28°C° 0 mm 4 mps 756 mmHg 79%
22:00 +28°C° 0 mm 4 mps 757 mmHg 82%
23:00 +27°C° 0.1 mm 4 mps 757 mmHg 82%

Mañana, 20 Enero, Miércoles

Tiempo Temperatura Precipitaciones Viento Presión Humedad
00:00 +27°C° 0.1 mm 4 mps 757 mmHg 83%
01:00 +27°C° 0.1 mm 4 mps 757 mmHg 83%
02:00 +27°C° 0.1 mm 4 mps 756 mmHg 84%
03:00 +27°C° 0.1 mm 4 mps 756 mmHg 85%
04:00 +27°C° 0.1 mm 3 mps 755 mmHg 86%
05:00 +27°C° 0.1 mm 3 mps 756 mmHg 85%
06:00 +27°C° 0.1 mm 3 mps 756 mmHg 85%
07:00 +27°C° 0.1 mm 3 mps 756 mmHg 84%
08:00 +28°C° 0.1 mm 4 mps 756 mmHg 77%
09:00 +30°C° 0.1 mm 4 mps 757 mmHg 69%
10:00 +32°C° 0.1 mm 5 mps 757 mmHg 62%
11:00 +33°C° 0.1 mm 5 mps 757 mmHg 59%
12:00 +34°C° 0.1 mm 5 mps 756 mmHg 56%
13:00 +34°C° 0.1 mm 6 mps 756 mmHg 52%
14:00 +34°C° 0 mm 6 mps 756 mmHg 54%
15:00 +33°C° 0 mm 6 mps 755 mmHg 56%
16:00 +33°C° 0 mm 6 mps 754 mmHg 58%
17:00 +32°C° 0 mm 5 mps 755 mmHg 63%
18:00 +30°C° 0 mm 5 mps 755 mmHg 68%
19:00 +29°C° 0 mm 4 mps 755 mmHg 73%
20:00 +28°C° 0 mm 4 mps 756 mmHg 75%
21:00 +28°C° 0 mm 4 mps 756 mmHg 78%
22:00 +28°C° 0 mm 3 mps 757 mmHg 80%
23:00 +27°C° 0.2 mm 3 mps 757 mmHg 82%

Pasado mañana, 21 Enero, Jueves

Tiempo Temperatura Precipitaciones Viento Presión Humedad
00:00 +27°C° 0.2 mm 3 mps 756 mmHg 84%
01:00 +27°C° 0.2 mm 3 mps 756 mmHg 85%
02:00 +26°C° 0 mm 3 mps 756 mmHg 86%
03:00 +26°C° 0 mm 3 mps 756 mmHg 87%
04:00 +26°C° 0 mm 3 mps 755 mmHg 88%
05:00 +26°C° 0.1 mm 3 mps 756 mmHg 87%
06:00 +26°C° 0.1 mm 3 mps 756 mmHg 86%
07:00 +26°C° 0.1 mm 3 mps 756 mmHg 86%
08:00 +28°C° 0.1 mm 4 mps 757 mmHg 78%
09:00 +29°C° 0.1 mm 4 mps 757 mmHg 70%
10:00 +32°C° 0.1 mm 5 mps 758 mmHg 62%
11:00 +33°C° 0.1 mm 5 mps 757 mmHg 58%
12:00 +34°C° 0.1 mm 6 mps 757 mmHg 55%
13:00 +34°C° 0.1 mm 6 mps 757 mmHg 51%
14:00 +34°C° 0 mm 6 mps 756 mmHg 53%
15:00 +34°C° 0 mm 6 mps 756 mmHg 55%
16:00 +33°C° 0 mm 6 mps 755 mmHg 57%
17:00 +32°C° 0 mm 6 mps 756 mmHg 63%
18:00 +30°C° 0 mm 5 mps 756 mmHg 69%
19:00 +28°C° 0 mm 5 mps 756 mmHg 75%
20:00 +28°C° 0 mm 4 mps 757 mmHg 77%
21:00 +28°C° 0 mm 4 mps 757 mmHg 79%
22:00 +28°C° 0 mm 4 mps 758 mmHg 81%
23:00 +27°C° 0.2 mm 4 mps 757 mmHg 82%

22 Enero, Viernes

Tiempo Temperatura Precipitaciones Viento Presión Humedad
00:00 +27°C° 0.2 mm 3 mps 757 mmHg 84%
01:00 +27°C° 0.2 mm 3 mps 757 mmHg 86%
02:00 +26°C° 0.1 mm 3 mps 757 mmHg 87%
03:00 +26°C° 0.1 mm 3 mps 756 mmHg 88%
04:00 +26°C° 0.1 mm 3 mps 756 mmHg 89%
05:00 +26°C° 0 mm 3 mps 756 mmHg 88%
06:00 +26°C° 0 mm 3 mps 757 mmHg 88%
07:00 +26°C° 0 mm 3 mps 757 mmHg 87%
08:00 +28°C° 0.1 mm 3 mps 757 mmHg 78%
09:00 +30°C° 0.1 mm 4 mps 758 mmHg 69%
10:00 +32°C° 0.1 mm 5 mps 759 mmHg 60%
11:00 +33°C° 0 mm 5 mps 758 mmHg 56%
12:00 +34°C° 0 mm 5 mps 758 mmHg 52%
13:00 +35°C° 0 mm 6 mps 757 mmHg 48%
14:00 +35°C° 0 mm 6 mps 757 mmHg 49%
15:00 +34°C° 0 mm 6 mps 756 mmHg 50%
16:00 +34°C° 0 mm 6 mps 756 mmHg 52%
17:00 +33°C° 0 mm 6 mps 756 mmHg 58%
18:00 +30°C° 0 mm 6 mps 756 mmHg 64%
19:00 +29°C° 0 mm 5 mps 757 mmHg 71%
20:00 +29°C° 0 mm 5 mps 757 mmHg 72%
21:00 +28°C° 0 mm 5 mps 758 mmHg 74%
22:00 +28°C° 0 mm 5 mps 758 mmHg 76%
23:00 +28°C° 0 mm 5 mps 758 mmHg 76%

23 Enero, Sábado

Tiempo Temperatura Precipitaciones Viento Presión Humedad
00:00 +28°C° 0 mm 5 mps 757 mmHg 76%
01:00 +28°C° 0 mm 5 mps 757 mmHg 77%
02:00 +28°C° 0 mm 5 mps 757 mmHg 77%
03:00 +28°C° 0 mm 4 mps 756 mmHg 78%
04:00 +27°C° 0 mm 4 mps 756 mmHg 79%
05:00 +27°C° 0 mm 4 mps 756 mmHg 79%
06:00 +27°C° 0 mm 4 mps 757 mmHg 79%
07:00 +27°C° 0 mm 4 mps 757 mmHg 79%
08:00 +28°C° 0 mm 4 mps 757 mmHg 74%
09:00 +29°C° 0 mm 5 mps 757 mmHg 70%
10:00 +30°C° 0 mm 5 mps 758 mmHg 65%
11:00 +32°C° 0 mm 6 mps 757 mmHg 59%
12:00 +34°C° 0 mm 6 mps 757 mmHg 54%
13:00 +35°C° 0 mm 7 mps 756 mmHg 48%
14:00 +34°C° 0 mm 7 mps 756 mmHg 50%
15:00 +34°C° 0 mm 7 mps 755 mmHg 53%
16:00 +33°C° 0 mm 7 mps 755 mmHg 55%
17:00 +32°C° 0 mm 7 mps 755 mmHg 61%
18:00 +30°C° 0 mm 6 mps 756 mmHg 66%
19:00 +29°C° 0 mm 5 mps 756 mmHg 72%
20:00 +28°C° 0 mm 5 mps 756 mmHg 75%
21:00 +28°C° 0 mm 5 mps 757 mmHg 77%
22:00 +28°C° 0 mm 5 mps 757 mmHg 80%
23:00 +28°C° 0 mm 4 mps 757 mmHg 80%

24 Enero, Domingo

Tiempo Temperatura Precipitaciones Viento Presión Humedad
00:00 +27°C° 0 mm 4 mps 757 mmHg 81%
01:00 +27°C° 0 mm 4 mps 756 mmHg 82%
02:00 +27°C° 0 mm 4 mps 756 mmHg 83%
03:00 +27°C° 0 mm 3 mps 755 mmHg 84%
04:00 +26°C° 0 mm 3 mps 755 mmHg 86%
05:00 +27°C° 0.1 mm 3 mps 756 mmHg 85%
06:00 +27°C° 0.1 mm 3 mps 756 mmHg 85%
07:00 +27°C° 0.1 mm 3 mps 756 mmHg 84%
08:00 +28°C° 0 mm 4 mps 756 mmHg 76%
09:00 +30°C° 0 mm 5 mps 757 mmHg 68%
10:00 +32°C° 0 mm 6 mps 757 mmHg 60%
11:00 +33°C° 0 mm 6 mps 756 mmHg 55%
12:00 +34°C° 0 mm 7 mps 756 mmHg 51%
13:00 +35°C° 0 mm 7 mps 756 mmHg 47%
14:00 +35°C° 0 mm 7 mps 755 mmHg 48%
15:00 +34°C° 0 mm 7 mps 754 mmHg 50%
16:00 +34°C° 0 mm 7 mps 754 mmHg 51%
17:00 +32°C° 0 mm 7 mps 754 mmHg 58%
18:00 +30°C° 0 mm 6 mps 754 mmHg 65%
19:00 +29°C° 0 mm 5 mps 755 mmHg 72%
20:00 +28°C° 0 mm 5 mps 755 mmHg 74%
21:00 +28°C° 0 mm 5 mps 756 mmHg 76%
22:00 +28°C° 0 mm 4 mps 756 mmHg 78%
23:00 +27°C° 0 mm 4 mps 756 mmHg 79%
Mostrar más